STARLINK-35540, 66151

Orbit data source: Space-Track

STARLINK-35540, 66151 is a payload satellite owned by SpaceX/Seattle (US) in LEO that was launched on Sat, 25 Oct 2025 UTC via an FALCON 9 launch vehicle from the Air Force Eastern Test Range (AFETR). Payload-class satellites include a variety of spacecraft equipped with specific instruments for various scientific and technological missions. These include communications satellites like Starlink; space stations such as the ISS; scientific satellites like the Hubble; Earth observation satellites from companies like Planet Labs, Umbra, and HawkEye 360; GPS; miniature CubeSats for education and research; and military/defense satellites.

Loading next visibility...
Identifier
66151, 2025-240F
Orbit
LEO
Country
Flag of USUS
Related business
Manufacturer
SpaceX/Seattle
Mission
Operational Commercial Communications
Bus & Motor
STARLINK V2MO, Unknown motor
Mass
575 kg wet, ~530 kg dry
Launch date (UTC)
2025-10-25 (8 months ago)
Launch vehicle
FALCON 9
Launch site
Air Force Eastern Test Range (AFETR)
Object type
Payload
Rocket body
Debris
Shape & HBR
Box + 2 Pan, 17.7 m
Radar Cross Section
36.964 m², Large (>1 m²)

Expand to show TLE details & history
Last TLE update: 1 day ago

TLE from 1 day ago
0 STARLINK-35540
1 66151U 25240F   26170.79562624  .00024822  00000-0  74299-3 0  9991
2 66151  53.1592 306.9612 0001035  74.7078 285.4038 15.34415692 37645
Epoch: 2026-06-19T19:05Z
TLE epoch observation values (Epoch: 2026-06-19T19:05:42.107Z)
Latitude
-0.00008°
Longitude
112.51622°
Altitude
463.37 km
Speed
7.636 km/s
True Right ascension
20h 27m 50s
True Declination
0° 00' 00"
Sunlit
Object was in full shadow at epoch
Visualization orbit readout
Latitude
Unknown
Longitude
Unknown
Altitude
Unknown
Speed
Unknown
Apparent Right ascension
Unknown
Apparent Declination
Unknown
Sunlit
N/A
Visualization observer readout
Local Sidereal Time
07:13:21
Azimuth
Unknown
Elevation
Unknown
Doppler factor
Unknown
Orbital elements
Apogee altitude
463.622 km
Perigee altitude
462.206 km
Semi-major axis
6,841.051 km
Eccentricity
0.0001
Inclination
53.1592°
RAAN
306.9612°
Arg. of periapsis
74.7078°
True anomaly
285.39237°
Mean anomaly
285.4038°
Eccentric anomaly
285.39808°
Mean motion
3.83583 °/min
Orbital period
93.85 mins
BSTAR
0.00074299
Loading maneuver chart data...
Computing Atmospheric mass density...
Loading historical data...
Loading historical data...
Loading historical data...
Loading historical data...
Loading historical data...
Loading historical data...
Loading historical data...

Documentation

Showing up to 5 results
|